Tracking 27107 objects as of 21-Mar-2023
HD Live streaming from Space Station
objects crossing your sky now

STARLINK-4687

Track STARLINK-4687 now!
10-day predictions
STARLINK-4687 is classified as:


NORAD ID: 53784
Int'l Code: 2022-111M
Perigee: 545.9 km
Apogee: 547.9 km
Inclination: 53.2 °
Period: 95.4 minutes
Semi major axis: 6917 km
RCS: Unknown
Launch date: September 11, 2022
Source: United States (US)
Launch site: AIR FORCE EASTERN TEST RANGE (AFETR)
Your satellite tracking list
Your tracking list is empty




NASA's NSSDC Master Catalog

Two Line Element Set (TLE):
1 53784U 22111M   23080.32653869  .00003049  00000-0  20958-3 0  9992
2 53784  53.2142 102.0518 0001466  88.7059 271.4101 15.08843968 29994
Source of the keplerian elements: AFSPC